Regional Weather Roundup
Issued by NWS

Home | Current Version | Previous Version | Graphics & Text | Print | Product List | Glossary On
Versions: 1 2 3 4 5 6 7 8 9 10 11 12 13 14 15 16 17 18 19 20 21 22 23 24 25 26 27 28 29 30 31 32 33 34 35 36 37 38 39 40 41 42 43 44 45 46 47 48
000
ASUS45 KBOI 040410
RWRID

IDAHO REGIONAL WEATHER ROUNDUP
NATIONAL WEATHER SERVICE BOISE ID
1000 PM MDT THU SEP 03 2015

NOTE: "FAIR" INDICATES FEW OR NO CLOUDS BELOW 12000 FEET
WITH NO SIGNIFICANT WEATHER AND/OR OBSTRUCTIONS TO VISIBILITY

IDZ012-014-040500-
SOUTHWEST IDAHO


CITY           SKY/WX    TMP DP  RH WIND       PRES   REMARKS
BOISE          MOCLDY    64  39  39 NW7       29.85R
CALDWELL       MOCLDY    59  36  41 W5        29.87S
MOUNTAIN HOME  CLOUDY    62  36  38 W10       29.86R
$$

IDZ016-017-040500-
SOUTHCENTRAL IDAHO


CITY           SKY/WX    TMP DP  RH WIND       PRES   REMARKS
BURLEY         CLEAR     57  42  57 W12       29.86R
JEROME         PTCLDY    58  39  49 SW12      29.87R
TWIN FALLS     PTCLDY    61  37  41 SW15      29.88R
$$

IDZ019>023-040500-
SOUTHEAST IDAHO


CITY           SKY/WX    TMP DP  RH WIND       PRES   REMARKS
IDAHO FALLS    MOCLDY    65  45  48 S3        29.87R
POCATELLO      CLEAR     60  52  74 S5        29.84R
REXBURG        CLOUDY    66  43  43 SE8G17    29.87F
$$

IDZ006-010-011-018-031-032-040500-
CENTRAL IDAHO MOUNTAINS


CITY           SKY/WX    TMP DP  RH WIND       PRES   REMARKS
MCCALL         PTCLDY    46  40  79 NW5       29.94R
HAILEY         PTCLDY    57  39  51 SE9       29.90R
STANLEY          N/A     48  34  58 W6        30.00R
SALMON         CLOUDY    54  39  58 CALM      29.92S
CHALLIS        CLOUDY    58  40  51 NW7       29.92R
$$

IDZ002-004-006-007-026-040500-
NORTHERN IDAHO


CITY           SKY/WX    TMP DP  RH WIND       PRES   REMARKS
LEWISTON       CLEAR     56  42  59 SE3       29.93S
LOWELL           N/A     52  49  89 CALM      29.99R
COEUR D`ALENE  CLEAR     50  28  43 NE5       29.93S
MULLAN PASS    CLOUDY    40  37  89 CALM      30.00S
$$



USA.gov is the U.S. government's official web portal to all federal, state and local government web resources and services.